Location: Splawn
(30.9202°N, 96.9858°W)
Time: 08:51:03
(UTC+00:00)

Explorer 7 - Visible Passes

Search period start: 28 February 2020 00:00
Search period end: 09 March 2020 00:00
Orbit: 485 x 679 km, 50.3° (Epoch: 27 February)

Date Brightness Start Highest point End Pass type
(mag) Time Alt. Az. Time Alt. Az. Time Alt. Az.
03 Mar 10.1 12:01:02 10° SSE 12:03:35 14° SE 12:06:08 10° E visible
04 Mar 9.5 12:04:19 10° S 12:08:16 25° SE 12:12:15 10° ENE visible
05 Mar 8.5 12:08:25 10° SSW 12:13:01 43° SE 12:17:39 10° ENE visible
06 Mar 7.5 12:12:58 10° SW 12:17:49 75° SE 12:22:43 10° NE visible
07 Mar 9.7 10:39:43 11° SSE 10:42:31 17° SE 10:45:37 10° E visible
07 Mar 7.3 12:17:52 10° SW 12:22:43 66° NW 12:27:35 10° NE visible
08 Mar 8.9 10:45:26 23° SSE 10:47:11 29° SE 10:51:25 10° ENE visible
